^^
Your Local Weather - Clay, NY Station Historical Data
Daily Summary for May 7, 2017 Units:  Metric    English   Both
« Previous Day
Next Day »
Daily Weekly Monthly Yearly Custom
  High: Low: Average:
Temperature: 7 °C 3.6 °C 5.3 °C
Dew Point: 5.7 °C 1.5 °C 3.1 °C
Humidity: 93% 76% 86%
Wind Speed: 6.4km/h 0km/h 2.9km/h
Wind Gust: 12.9km/h - -
Wind- - North
Pressure: 1008.4 hPa 995.1 hPa -
Precipitation: 3.3 mm    
Historical Graphs
 
 
Tabular Data for May 7, 2017
Time Temperature Dew Point Pressure Wind Wind Speed Wind Gust Humidity Rainfall Rate (Hourly) solar
00:02 7 °C 5.6 °C 995.1 hPa SW 3.2 km/h 3.2 km/h 91% 0 mm 0 W/m2
00:08 6.9 °C 5.7 °C 995.1 hPa SSW 3.2 km/h 8 km/h 92% 0 mm 0 W/m2
00:14 6.9 °C 5.7 °C 995.1 hPa WSW 3.2 km/h 3.2 km/h 92% 0 mm 0 W/m2
00:20 6.9 °C 5.7 °C 995.1 hPa SSW 3.2 km/h 3.2 km/h 92% 0 mm 0 W/m2
00:26 6.9 °C 5.7 °C 995.1 hPa WSW 3.2 km/h 8 km/h 92% 0 mm 0 W/m2
00:32 6.9 °C 5.7 °C 995.1 hPa WSW 3.2 km/h 4.8 km/h 92% 0 mm 0 W/m2
00:38 6.8 °C 5.6 °C 995.1 hPa SW 3.2 km/h 4.8 km/h 92% 0 mm 0 W/m2
00:44 6.8 °C 5.6 °C 995.1 hPa WSW 3.2 km/h 8 km/h 92% 0 mm 0 W/m2
00:50 6.8 °C 5.6 °C 995.1 hPa SW 3.2 km/h 3.2 km/h 92% 0 mm 0 W/m2
00:56 6.7 °C 5.5 °C 995.1 hPa West 3.2 km/h 3.2 km/h 92% 0 mm 0 W/m2
01:02 6.7 °C 5.4 °C 995.1 hPa West 3.2 km/h 3.2 km/h 92% 0 mm 0 W/m2
01:08 6.7 °C 5.4 °C 995.1 hPa SW 3.2 km/h 9.7 km/h 92% 0 mm 0 W/m2
01:14 6.7 °C 5.4 °C 995.1 hPa SW 3.2 km/h 4.8 km/h 92% 0 mm 0 W/m2
01:20 6.7 °C 5.4 °C 995.1 hPa WSW 3.2 km/h 3.2 km/h 92% 0 mm 0 W/m2
01:26 6.6 °C 5.6 °C 995.1 hPa SW 4.8 km/h 12.9 km/h 93% 0 mm 0 W/m2
01:32 6.6 °C 5.6 °C 995.1 hPa WSW 3.2 km/h 4.8 km/h 93% 0 mm 0 W/m2
01:38 6.6 °C 5.6 °C 995.1 hPa West 3.2 km/h 4.8 km/h 93% 0 mm 0 W/m2
01:44 6.6 °C 5.5 °C 995.1 hPa SW 3.2 km/h 8 km/h 93% 0 mm 0 W/m2
01:50 6.5 °C 5.4 °C 995.1 hPa SSW 3.2 km/h 9.7 km/h 93% 0 mm 0 W/m2
01:56 6.4 °C 5.4 °C 995.1 hPa SSW 4.8 km/h 9.7 km/h 93% 0 mm 0 W/m2
02:02 6.4 °C 5.4 °C 995.1 hPa SW 4.8 km/h 12.9 km/h 93% 0 mm 0 W/m2
02:08 6.4 °C 5.3 °C 995.1 hPa West 4.8 km/h 12.9 km/h 93% 0 mm 0 W/m2
02:14 6.3 °C 5.3 °C 995.1 hPa SSW 3.2 km/h 3.2 km/h 93% 0 mm 0 W/m2
02:20 6.3 °C 5.3 °C 995.5 hPa SW 3.2 km/h 4.8 km/h 93% 0 mm 0 W/m2
02:26 6.3 °C 5.3 °C 995.5 hPa SW 4.8 km/h 11.3 km/h 93% 0 mm 0 W/m2
02:32 6.3 °C 5.3 °C 995.5 hPa West 4.8 km/h 4.8 km/h 93% 0 mm 0 W/m2
02:38 6.3 °C 5.3 °C 995.5 hPa SW 3.2 km/h 8 km/h 93% 0 mm 0 W/m2
02:44 6.3 °C 5.3 °C 995.5 hPa WSW 3.2 km/h 3.2 km/h 93% 0 mm 0 W/m2
02:50 6.3 °C 5.3 °C 995.5 hPa WSW 3.2 km/h 4.8 km/h 93% 0 mm 0 W/m2
02:56 6.3 °C 5.2 °C 995.5 hPa SW 4.8 km/h 4.8 km/h 93% 0 mm 0 W/m2
03:02 6.3 °C 5.2 °C 995.5 hPa South 4.8 km/h 8 km/h 93% 0 mm 0 W/m2
03:08 6.2 °C 5.2 °C 995.5 hPa WSW 6.4 km/h 8 km/h 93% 0 mm 0 W/m2
03:14 6.3 °C 5.2 °C 995.5 hPa SW 4.8 km/h 6.4 km/h 93% 0 mm 0 W/m2
03:20 6.2 °C 5.2 °C 995.8 hPa WSW 3.2 km/h 9.7 km/h 93% 1.02 mm 0 W/m2
03:26 6.2 °C 5.2 °C 995.8 hPa SSW 3.2 km/h 9.7 km/h 93% 1.02 mm 0 W/m2
03:32 6.2 °C 5.2 °C 995.8 hPa WSW 1.6 km/h 9.7 km/h 93% 1.02 mm 0 W/m2
03:38 6.2 °C 5.1 °C 995.8 hPa NW 1.6 km/h 9.7 km/h 93% 1.02 mm 0 W/m2
03:44 6.2 °C 5.1 °C 996.2 hPa WSW 1.6 km/h 3.2 km/h 93% 1.02 mm 0 W/m2
03:50 6.1 °C 5 °C 996.2 hPa WSW 1.6 km/h 1.6 km/h 93% 0 mm 0 W/m2
03:56 6 °C 4.9 °C 996.2 hPa WNW 1.6 km/h 6.4 km/h 93% 0 mm 0 W/m2
04:02 5.9 °C 4.9 °C 996.2 hPa WNW 1.6 km/h 1.6 km/h 93% 0 mm 0 W/m2
04:08 5.9 °C 4.8 °C 996.5 hPa SW 1.6 km/h 3.2 km/h 93% 0 mm 0 W/m2
04:14 5.8 °C 4.8 °C 996.5 hPa WNW 1.6 km/h 3.2 km/h 93% 0 mm 0 W/m2
04:20 5.8 °C 4.8 °C 996.5 hPa WSW 1.6 km/h 1.6 km/h 93% 0 mm 0 W/m2
04:26 5.8 °C 4.7 °C 996.5 hPa WSW 3.2 km/h 9.7 km/h 93% 0 mm 0 W/m2
04:32 5.7 °C 4.6 °C 996.5 hPa WSW 3.2 km/h 4.8 km/h 93% 0 mm 0 W/m2
04:38 5.6 °C 4.6 °C 996.8 hPa WSW 3.2 km/h 8 km/h 93% 0 mm 0 W/m2
04:44 5.6 °C 4.6 °C 996.8 hPa West 1.6 km/h 4.8 km/h 93% 0 mm 0 W/m2
04:50 5.5 °C 4.4 °C 996.8 hPa WSW 1.6 km/h 4.8 km/h 93% 0 mm 0 W/m2
04:56 5.4 °C 4.3 °C 997.2 hPa West 1.6 km/h 4.8 km/h 93% 0 mm 0 W/m2
05:02 5.3 °C 4.3 °C 997.2 hPa West 1.6 km/h 3.2 km/h 93% 0 mm 0 W/m2
05:08 5.3 °C 4.3 °C 997.2 hPa SW 1.6 km/h 6.4 km/h 93% 0 mm 0 W/m2
05:14 5.3 °C 4.2 °C 997.5 hPa NW 3.2 km/h 4.8 km/h 93% 0 mm 0 W/m2
05:20 5.2 °C 4.1 °C 997.5 hPa West 3.2 km/h 4.8 km/h 93% 0 mm 0 W/m2
05:26 5.1 °C 4.1 °C 997.5 hPa WSW 3.2 km/h 8 km/h 93% 0 mm 0 W/m2
05:32 5 °C 3.9 °C 997.5 hPa WNW 3.2 km/h 6.4 km/h 93% 0 mm 0 W/m2
05:38 4.8 °C 3.7 °C 997.5 hPa WSW 3.2 km/h 8 km/h 92% 0 mm 0 W/m2
05:44 4.7 °C 3.6 °C 997.9 hPa WSW 3.2 km/h 6.4 km/h 92% 0 mm 0 W/m2
05:50 4.7 °C 3.5 °C 997.9 hPa WSW 3.2 km/h 3.2 km/h 92% 0 mm 0 W/m2
05:56 4.6 °C 3.4 °C 998.2 hPa WNW 3.2 km/h 4.8 km/h 92% 0 mm 0 W/m2
06:02 4.6 °C 3.4 °C 998.2 hPa WNW 1.6 km/h 3.2 km/h 92% 0 mm 0 W/m2
06:08 4.6 °C 3.4 °C 998.2 hPa West 1.6 km/h 3.2 km/h 92% 0 mm 5 W/m2
06:14 4.6 °C 3.4 °C 998.2 hPa West 1.6 km/h 1.6 km/h 92% 0 mm 9 W/m2
06:20 4.6 °C 3.4 °C 998.5 hPa Calm   1.6 km/h 92% 0 mm 14 W/m2
06:26 4.4 °C 3.2 °C 998.5 hPa SW 1.6 km/h 3.2 km/h 92% 0 mm 18 W/m2
06:32 4.3 °C 3.1 °C 998.9 hPa WNW 3.2 km/h 3.2 km/h 92% 0 mm 21 W/m2
06:38 4.3 °C 2.9 °C 998.9 hPa WSW 3.2 km/h 3.2 km/h 91% 0 mm 26 W/m2
06:44 4.3 °C 2.9 °C 999.2 hPa WSW 3.2 km/h 3.2 km/h 91% 0 mm 35 W/m2
06:50 4.3 °C 2.9 °C 999.2 hPa WSW 1.6 km/h 3.2 km/h 91% 0 mm 46 W/m2
06:56 4.3 °C 2.9 °C 999.2 hPa WNW 1.6 km/h 4.8 km/h 91% 0 mm 49 W/m2
07:02 4.2 °C 2.9 °C 999.2 hPa WSW 3.2 km/h 3.2 km/h 91% 0 mm 65 W/m2
07:08 4.3 °C 2.9 °C 999.5 hPa WSW 3.2 km/h 8 km/h 91% 0 mm 62 W/m2
07:14 4.2 °C 2.9 °C 999.5 hPa WNW 3.2 km/h 4.8 km/h 91% 0 mm 63 W/m2
07:20 4.2 °C 2.9 °C 999.5 hPa WSW 1.6 km/h 1.6 km/h 91% 0 mm 56 W/m2
07:26 4.3 °C 2.9 °C 999.9 hPa NW 1.6 km/h 1.6 km/h 91% 0 mm 63 W/m2
07:32 4.3 °C 3 °C 999.9 hPa West 1.6 km/h 1.6 km/h 91% 0 mm 74 W/m2
07:38 4.4 °C 3.1 °C 999.9 hPa NW 1.6 km/h 1.6 km/h 91% 0 mm 74 W/m2
07:44 4.4 °C 3.1 °C 999.9 hPa SW 1.6 km/h 4.8 km/h 91% 0 mm 90 W/m2
07:50 4.4 °C 3.1 °C 999.9 hPa SW 1.6 km/h 1.6 km/h 91% 0 mm 77 W/m2
07:56 4.4 °C 2.9 °C 999.9 hPa NNW 1.6 km/h 3.2 km/h 90% 0 mm 88 W/m2
08:02 4.5 °C 3 °C 1000.2 hPa SW 1.6 km/h 3.2 km/h 90% 0 mm 91 W/m2
08:08 4.5 °C 3 °C 1000.2 hPa WSW 1.6 km/h 6.4 km/h 90% 0 mm 165 W/m2
08:14 4.7 °C 3.4 °C 1000.2 hPa Calm   1.6 km/h 91% 0 mm 139 W/m2
08:20 4.7 °C 3.2 °C 1000.2 hPa WSW 1.6 km/h 4.8 km/h 90% 0 mm 125 W/m2
08:26 4.7 °C 3.2 °C 1000.6 hPa WNW 3.2 km/h 4.8 km/h 90% 0 mm 105 W/m2
08:32 4.7 °C 3.2 °C 1000.6 hPa WNW 3.2 km/h 3.2 km/h 90% 0 mm 162 W/m2
08:38 4.8 °C 3.3 °C 1000.9 hPa NW 3.2 km/h 6.4 km/h 90% 0 mm 162 W/m2
08:44 4.9 °C 3.4 °C 1000.9 hPa NNW 3.2 km/h 6.4 km/h 90% 0 mm 167 W/m2
08:50 4.9 °C 3.2 °C 1000.9 hPa NW 3.2 km/h 3.2 km/h 89% 0 mm 155 W/m2
08:56 4.9 °C 3.2 °C 1001.2 hPa WSW 3.2 km/h 11.3 km/h 89% 0 mm 139 W/m2
09:02 4.9 °C 3.1 °C 1001.2 hPa WNW 1.6 km/h 3.2 km/h 88% 0 mm 171 W/m2
09:06 4.8 °C 3 °C 1001.2 hPa SW 3.2 km/h 4.8 km/h 88% 0 mm 172 W/m2
09:12 4.8 °C 2.8 °C 1001.2 hPa WNW 4.8 km/h 4.8 km/h 87% 0 mm 200 W/m2
09:18 4.7 °C 2.6 °C 1001.6 hPa West 4.8 km/h 4.8 km/h 86% 0 mm 135 W/m2
09:24 4.7 °C 2.7 °C 1001.6 hPa NW 3.2 km/h 4.8 km/h 87% 0 mm 116 W/m2
09:30 4.6 °C 2.6 °C 1001.6 hPa NW 1.6 km/h 1.6 km/h 87% 0 mm 155 W/m2
09:36 4.6 °C 2.7 °C 1001.9 hPa West 1.6 km/h 8 km/h 88% 0 mm 193 W/m2
09:42 4.6 °C 2.9 °C 1001.9 hPa West 1.6 km/h 1.6 km/h 89% 0 mm 188 W/m2
09:48 4.6 °C 2.9 °C 1001.9 hPa West 1.6 km/h 4.8 km/h 89% 0 mm 109 W/m2
09:54 4.4 °C 2.7 °C 1001.9 hPa WNW 3.2 km/h 4.8 km/h 89% 0 mm 107 W/m2
10:00 4.3 °C 2.6 °C 1002.3 hPa WNW 4.8 km/h 4.8 km/h 89% 0 mm 151 W/m2
10:06 4.3 °C 2.7 °C 1002.3 hPa WSW 3.2 km/h 4.8 km/h 89% 0 mm 301 W/m2
10:12 4.6 °C 2.9 °C 1002.3 hPa West 3.2 km/h 3.2 km/h 89% 0 mm 292 W/m2
10:18 4.9 °C 3.3 °C 1002.3 hPa WNW 3.2 km/h 4.8 km/h 89% 0 mm 302 W/m2
10:24 5 °C 3.2 °C 1002.3 hPa West 3.2 km/h 4.8 km/h 88% 0 mm 332 W/m2
10:30 5.3 °C 3.5 °C 1002.3 hPa WSW 3.2 km/h 3.2 km/h 88% 0 mm 413 W/m2
10:36 5.8 °C 3.9 °C 1002.3 hPa NW 1.6 km/h 4.8 km/h 88% 0 mm 418 W/m2
10:42 5.7 °C 3.4 °C 1002.3 hPa WNW 3.2 km/h 12.9 km/h 85% 0 mm 287 W/m2
10:48 5.6 °C 3.3 °C 1002.6 hPa North 3.2 km/h 12.9 km/h 85% 0 mm 301 W/m2
10:56 5.9 °C 3.4 °C 1002.6 hPa NW 3.2 km/h 4.8 km/h 84% 0 mm 313 W/m2
11:02 5.6 °C 2.9 °C 1002.6 hPa WSW 4.8 km/h 6.4 km/h 83% 0 mm 206 W/m2
11:08 5.3 °C 2.7 °C 1002.6 hPa NW 4.8 km/h 8 km/h 83% 0 mm 301 W/m2
11:14 5.6 °C 3.2 °C 1002.6 hPa North 4.8 km/h 6.4 km/h 85% 0 mm 227 W/m2
11:56 6.2 °C 3.2 °C 1002.9 hPa NW 4.8 km/h 9.7 km/h 81% 0 mm 232 W/m2
12:02 5.4 °C 2.7 °C 1003.3 hPa NNW 6.4 km/h 8 km/h 83% 0 mm 313 W/m2
12:08 5.3 °C 3.2 °C 1002.9 hPa NW 4.8 km/h 8 km/h 86% 0 mm 390 W/m2
12:14 5.8 °C 3.6 °C 1002.9 hPa NW 3.2 km/h 4.8 km/h 86% 0 mm 522 W/m2
12:20 6 °C 3.3 °C 1003.3 hPa WNW 4.8 km/h 4.8 km/h 83% 0 mm 204 W/m2
12:26 5.7 °C 3.1 °C 1003.3 hPa WNW 4.8 km/h 6.4 km/h 83% 0 mm 167 W/m2
12:32 5.3 °C 2.5 °C 1003.3 hPa NW 4.8 km/h 6.4 km/h 82% 0 mm 255 W/m2
12:38 5.4 °C 2.4 °C 1003.6 hPa West 4.8 km/h 6.4 km/h 81% 0 mm 285 W/m2
12:44 5.7 °C 2.8 °C 1003.6 hPa NW 3.2 km/h 6.4 km/h 82% 0 mm 218 W/m2
12:50 5.7 °C 2.5 °C 1003.6 hPa WNW 3.2 km/h 4.8 km/h 80% 0 mm 323 W/m2
12:56 5.7 °C 2.7 °C 1003.6 hPa NW 4.8 km/h 8 km/h 81% 0 mm 278 W/m2
13:02 5.6 °C 2.4 °C 1003.9 hPa NW 3.2 km/h 4.8 km/h 80% 0 mm 130 W/m2
13:08 5.3 °C 2.5 °C 1003.9 hPa WNW 3.2 km/h 4.8 km/h 82% 0 mm 292 W/m2
13:14 5.4 °C 2.9 °C 1003.9 hPa WSW 1.6 km/h 6.4 km/h 84% 0 mm 327 W/m2
13:20 5.6 °C 2.9 °C 1003.9 hPa SW 3.2 km/h 4.8 km/h 83% 0 mm 206 W/m2
13:26 5.6 °C 2.8 °C 1003.9 hPa WSW 3.2 km/h 9.7 km/h 82% 0 mm 146 W/m2
13:32 5.6 °C 2.4 °C 1003.9 hPa NNW 3.2 km/h 6.4 km/h 80% 0 mm 128 W/m2
13:38 5.5 °C 1.9 °C 1003.9 hPa WSW 3.2 km/h 6.4 km/h 78% 0 mm 120 W/m2
13:44 5.4 °C 2.1 °C 1004.3 hPa NW 4.8 km/h 4.8 km/h 79% 0 mm 142 W/m2
13:50 5.3 °C 1.9 °C 1004.3 hPa NW 4.8 km/h 6.4 km/h 79% 0 mm 169 W/m2
13:56 5.2 °C 1.8 °C 1004.6 hPa West 6.4 km/h 6.4 km/h 79% 0 mm 156 W/m2
14:02 5.1 °C 2.1 °C 1004.6 hPa NW 4.8 km/h 4.8 km/h 81% 0 mm 172 W/m2
14:08 5.1 °C 2.3 °C 1004.6 hPa West 3.2 km/h 4.8 km/h 82% 0 mm 213 W/m2
14:14 5.3 °C 2.4 °C 1004.6 hPa NW 3.2 km/h 3.2 km/h 82% 0 mm 195 W/m2
14:20 5.4 °C 2.4 °C 1004.6 hPa NNW 1.6 km/h 1.6 km/h 81% 0 mm 162 W/m2
14:26 5.2 °C 1.9 °C 1004.6 hPa NW 4.8 km/h 6.4 km/h 79% 0 mm 151 W/m2
14:32 4.9 °C 1.9 °C 1004.6 hPa WNW 6.4 km/h 6.4 km/h 81% 0 mm 211 W/m2
14:38 4.7 °C 1.8 °C 1005 hPa WNW 6.4 km/h 8 km/h 82% 0 mm 120 W/m2
14:44 4.7 °C 2 °C 1005 hPa WSW 4.8 km/h 6.4 km/h 83% 0 mm 193 W/m2
14:50 4.9 °C 2.3 °C 1005 hPa NW 1.6 km/h 1.6 km/h 83% 0 mm 274 W/m2
14:56 5.2 °C 1.8 °C 1004.6 hPa NW 3.2 km/h 6.4 km/h 79% 0 mm 272 W/m2
15:02 5.4 °C 1.8 °C 1005 hPa NW 4.8 km/h 6.4 km/h 78% 0 mm 163 W/m2
15:08 5.4 °C 2.1 °C 1005 hPa NW 3.2 km/h 6.4 km/h 79% 0 mm 135 W/m2
15:14 5.3 °C 2 °C 1005 hPa WSW 3.2 km/h 3.2 km/h 79% 0 mm 130 W/m2
15:20 5.3 °C 2.1 °C 1005 hPa NW 1.6 km/h 9.7 km/h 80% 0 mm 167 W/m2
15:26 5.3 °C 2.2 °C 1005 hPa NW 1.6 km/h 9.7 km/h 80% 0 mm 163 W/m2
15:32 5.3 °C 2 °C 1005.3 hPa NW 3.2 km/h 3.2 km/h 79% 0 mm 172 W/m2
15:38 5.4 °C 2.1 °C 1005.3 hPa NW 3.2 km/h 4.8 km/h 79% 0 mm 290 W/m2
15:44 5.4 °C 2.1 °C 1005.3 hPa NW 3.2 km/h 3.2 km/h 79% 0 mm 137 W/m2
15:50 5.2 °C 1.7 °C 1005.3 hPa NW 4.8 km/h 4.8 km/h 78% 0 mm 144 W/m2
15:56 5.2 °C 1.8 °C 1005.3 hPa WNW 4.8 km/h 6.4 km/h 79% 0 mm 197 W/m2
16:02 5.1 °C 1.9 °C 1005.3 hPa WNW 4.8 km/h 9.7 km/h 80% 0 mm 213 W/m2
16:08 5.2 °C 1.9 °C 1005.3 hPa WNW 4.8 km/h 9.7 km/h 79% 0 mm 192 W/m2
16:14 5.3 °C 2 °C 1005.3 hPa NW 4.8 km/h 4.8 km/h 79% 0 mm 134 W/m2
16:20 5.3 °C 1.8 °C 1005.3 hPa West 3.2 km/h 3.2 km/h 78% 0 mm 100 W/m2
16:26 5.2 °C 1.7 °C 1005.3 hPa SW 3.2 km/h 8 km/h 78% 0 mm 121 W/m2
16:32 5.3 °C 2 °C 1005.3 hPa WNW 1.6 km/h 3.2 km/h 79% 0 mm 127 W/m2
16:38 5.3 °C 1.8 °C 1005.3 hPa West 3.2 km/h 3.2 km/h 78% 0 mm 123 W/m2
16:44 5.2 °C 1.7 °C 1005.3 hPa NW 3.2 km/h 3.2 km/h 78% 0 mm 79 W/m2
16:50 5.3 °C 2 °C 1005.6 hPa WNW 1.6 km/h 1.6 km/h 79% 0 mm 74 W/m2
16:56 5.3 °C 1.8 °C 1005.6 hPa West 1.6 km/h 3.2 km/h 78% 0 mm 79 W/m2
17:02 5.3 °C 1.6 °C 1005.6 hPa West 3.2 km/h 8 km/h 77% 0 mm 102 W/m2
17:08 5.3 °C 1.8 °C 1005.6 hPa WNW 4.8 km/h 8 km/h 78% 0 mm 100 W/m2
17:14 5.3 °C 1.6 °C 1005.6 hPa West 4.8 km/h 4.8 km/h 77% 0 mm 88 W/m2
17:20 5.3 °C 1.6 °C 1005.6 hPa WNW 4.8 km/h 8 km/h 77% 0 mm 88 W/m2
17:26 5.4 °C 1.5 °C 1005.6 hPa NW 3.2 km/h 8 km/h 76% 0 mm 102 W/m2
17:32 5.4 °C 1.7 °C 1005.6 hPa NW 3.2 km/h 4.8 km/h 77% 0 mm 125 W/m2
17:38 5.3 °C 1.8 °C 1005.6 hPa WNW 4.8 km/h 11.3 km/h 78% 0 mm 113 W/m2
17:44 5.3 °C 1.8 °C 1006 hPa West 4.8 km/h 6.4 km/h 78% 0 mm 151 W/m2
17:50 5.4 °C 2.1 °C 1006 hPa NW 3.2 km/h 3.2 km/h 79% 0 mm 134 W/m2
17:56 5.4 °C 1.9 °C 1006 hPa West 3.2 km/h 9.7 km/h 78% 0 mm 109 W/m2
18:02 5.4 °C 1.8 °C 1006.3 hPa WNW 3.2 km/h 3.2 km/h 78% 0 mm 77 W/m2
18:08 5.3 °C 1.8 °C 1006.3 hPa WNW 4.8 km/h 4.8 km/h 78% 0 mm 86 W/m2
18:14 5.3 °C 1.9 °C 1006.3 hPa NW 3.2 km/h 4.8 km/h 79% 0 mm 81 W/m2
18:20 5.3 °C 2.1 °C 1006.3 hPa NW 1.6 km/h 4.8 km/h 80% 0 mm 69 W/m2
18:26 5.3 °C 2.1 °C 1006.3 hPa NW 1.6 km/h 4.8 km/h 80% 0 mm 62 W/m2
18:32 5.2 °C 2.1 °C 1006.3 hPa NW 3.2 km/h 3.2 km/h 80% 0 mm 67 W/m2
18:38 5.2 °C 2.2 °C 1006.3 hPa NW 1.6 km/h 3.2 km/h 81% 0 mm 60 W/m2
18:44 5.2 °C 2.2 °C 1006.3 hPa NW 3.2 km/h 4.8 km/h 81% 0 mm 53 W/m2
18:50 5.2 °C 2 °C 1006.7 hPa West 1.6 km/h 3.2 km/h 80% 0 mm 46 W/m2
18:56 5.1 °C 1.9 °C 1006.7 hPa NW 1.6 km/h 4.8 km/h 80% 0 mm 40 W/m2
19:02 5.1 °C 1.9 °C 1006.7 hPa WSW 1.6 km/h 1.6 km/h 80% 0 mm 35 W/m2
19:08 5.2 °C 2 °C 1006.7 hPa NW 1.6 km/h 1.6 km/h 80% 0 mm 37 W/m2
19:14 5.2 °C 2.1 °C 1006.7 hPa NW 1.6 km/h 1.6 km/h 80% 0 mm 37 W/m2
19:20 5.2 °C 2.1 °C 1006.7 hPa WSW 1.6 km/h 1.6 km/h 80% 0 mm 42 W/m2
19:26 5.2 °C 2.2 °C 1007 hPa NW 1.6 km/h 1.6 km/h 81% 0 mm 53 W/m2
19:32 5.3 °C 2.4 °C 1007 hPa NW 1.6 km/h 1.6 km/h 82% 0 mm 40 W/m2
19:38 5.2 °C 2.2 °C 1007 hPa NW 1.6 km/h 6.4 km/h 81% 0 mm 25 W/m2
19:44 5.2 °C 2.2 °C 1007.3 hPa WNW 1.6 km/h 3.2 km/h 81% 0 mm 14 W/m2
19:50 5.1 °C 1.9 °C 1007.3 hPa NW 1.6 km/h 1.6 km/h 80% 0 mm 9 W/m2
19:56 5.1 °C 1.9 °C 1007.3 hPa NW 1.6 km/h 3.2 km/h 80% 0 mm 5 W/m2
20:02 5.1 °C 1.9 °C 1007.3 hPa NW 1.6 km/h 1.6 km/h 80% 0 mm 0 W/m2
20:08 5.1 °C 1.9 °C 1007.3 hPa NW 1.6 km/h 4.8 km/h 80% 0 mm 0 W/m2
20:14 5.1 °C 2.1 °C 1007.3 hPa NNW 1.6 km/h 1.6 km/h 81% 0 mm 0 W/m2
20:20 5.1 °C 2.1 °C 1007.3 hPa Calm     81% 0 mm 0 W/m2
20:26 5.1 °C 1.9 °C 1007.3 hPa NW 1.6 km/h 1.6 km/h 80% 0 mm 0 W/m2
20:32 5.1 °C 1.9 °C 1007.7 hPa NW 1.6 km/h 3.2 km/h 80% 0 mm 0 W/m2
20:38 5.1 °C 1.9 °C 1007.7 hPa NW 1.6 km/h 4.8 km/h 80% 0 mm 0 W/m2
20:46 5.1 °C 1.9 °C 1007.7 hPa NW 1.6 km/h 1.6 km/h 80% 0 mm 0 W/m2
20:52 5.1 °C 2.1 °C 1007.7 hPa Calm   1.6 km/h 81% 0 mm 0 W/m2
20:58 5.1 °C 2.1 °C 1007.7 hPa Calm   1.6 km/h 81% 0 mm 0 W/m2
21:04 5.1 °C 1.9 °C 1007.7 hPa WNW 1.6 km/h 1.6 km/h 80% 0 mm 0 W/m2
21:10 5.1 °C 2.1 °C 1008 hPa WNW 1.6 km/h 1.6 km/h 81% 0 mm 0 W/m2
21:16 5.1 °C 2.1 °C 1008 hPa WNW 1.6 km/h 6.4 km/h 81% 0 mm 0 W/m2
21:22 5.1 °C 2.1 °C 1008 hPa WNW 3.2 km/h 3.2 km/h 81% 0 mm 0 W/m2
21:28 5 °C 2.2 °C 1008 hPa NW 3.2 km/h 3.2 km/h 82% 0 mm 0 W/m2
21:34 4.9 °C 2.2 °C 1008.4 hPa WNW 1.6 km/h 3.2 km/h 83% 0 mm 0 W/m2
21:40 4.8 °C 2.3 °C 1008.4 hPa NW 1.6 km/h 3.2 km/h 84% 0 mm 0 W/m2
21:46 4.8 °C 2.4 °C 1008.4 hPa NW 3.2 km/h 4.8 km/h 85% 0 mm 0 W/m2
21:52 4.8 °C 2.4 °C 1008.4 hPa NW 1.6 km/h 3.2 km/h 85% 0 mm 0 W/m2
21:58 4.7 °C 2.6 °C 1008.4 hPa WNW 1.6 km/h 3.2 km/h 86% 0 mm 0 W/m2
22:04 4.7 °C 2.3 °C 1008.4 hPa NW 1.6 km/h 3.2 km/h 85% 0 mm 0 W/m2
22:10 4.7 °C 2.5 °C 1008.4 hPa NW 3.2 km/h 3.2 km/h 86% 0 mm 0 W/m2
22:16 4.7 °C 2.5 °C 1008.4 hPa WNW 3.2 km/h 6.4 km/h 86% 0 mm 0 W/m2
22:22 4.7 °C 2.5 °C 1008.4 hPa WNW 1.6 km/h 1.6 km/h 86% 0 mm 0 W/m2
22:28 4.7 °C 2.5 °C 1008.4 hPa NW 1.6 km/h 1.6 km/h 86% 0 mm 0 W/m2
22:34 4.7 °C 2.5 °C 1008.4 hPa NW 1.6 km/h 9.7 km/h 86% 0 mm 0 W/m2
22:40 4.6 °C 2.4 °C 1008.4 hPa WNW 3.2 km/h 3.2 km/h 86% 0 mm 0 W/m2
22:46 4.6 °C 2.6 °C 1008.4 hPa WNW 1.6 km/h 4.8 km/h 87% 0 mm 0 W/m2
22:52 4.3 °C 2.3 °C 1008.4 hPa NNW 3.2 km/h 8 km/h 87% 0 mm 0 W/m2
22:58 4 °C 2.1 °C 1008.4 hPa WNW 3.2 km/h 8 km/h 87% 0 mm 0 W/m2
23:04 3.8 °C 2 °C 1008.4 hPa NW 1.6 km/h 4.8 km/h 88% 2.29 mm 0 W/m2
23:10 3.7 °C 2 °C 1008.4 hPa NW 1.6 km/h 3.2 km/h 89% 2.54 mm 0 W/m2
23:16 3.6 °C 1.9 °C 1008.4 hPa NW 1.6 km/h 3.2 km/h 89% 1.52 mm 0 W/m2
23:22 3.7 °C 2 °C 1008.4 hPa Calm   1.6 km/h 89% 0 mm 0 W/m2
23:28 3.8 °C 2.3 °C 1008.4 hPa NW 1.6 km/h 4.8 km/h 90% 0 mm 0 W/m2
23:34 3.8 °C 2.3 °C 1008.4 hPa Calm   1.6 km/h 90% 0 mm 0 W/m2
23:40 3.9 °C 2.4 °C 1008.4 hPa Calm     90% 0 mm 0 W/m2
23:46 3.9 °C 2.4 °C 1008.4 hPa Calm   1.6 km/h 90% 0 mm 0 W/m2
23:52 3.9 °C 2.4 °C 1008.4 hPa Calm   1.6 km/h 90% 0 mm 0 W/m2
23:58 3.9 °C 2.4 °C 1008.4 hPa Calm   1.6 km/h 90% 0 mm 0 W/m2
Country Meadow, Clay, NY, USA
Compliments of Weather Underground - 2 mb